Time,TemperatureF,DewpointF,PressureIn,WindDirection,WindDirectionDegrees,WindSpeedMPH,WindSpeedGustMPH,Humidity,HourlyPrecipIn,Conditions,Clouds,dailyrainin,SoftwareType,DateUTC
2013-03-29 00:03:00,44.0,28.0,30.06,NE,45,0.0,2.0,53,0.00,,,0.00,,2013-03-29 05:03:00,
2013-03-29 00:12:00,44.0,28.0,30.06,NE,45,0.0,2.0,53,0.00,,,0.00,,2013-03-29 05:12:00,
2013-03-29 00:23:00,45.0,28.0,30.06,ENE,62,2.0,4.0,52,0.00,,,0.00,,2013-03-29 05:23:00,
2013-03-29 00:33:00,46.0,29.0,30.06,NE,47,0.0,4.0,51,0.00,,,0.00,,2013-03-29 05:33:00,
2013-03-29 00:43:00,46.0,29.0,30.06,NE,47,0.0,4.0,51,0.00,,,0.00,,2013-03-29 05:43:00,
2013-03-29 00:52:00,45.0,28.0,30.06,North,5,0.0,2.0,52,0.00,,,0.00,,2013-03-29 05:52:00,
2013-03-29 01:02:00,44.0,28.0,30.06,North,5,0.0,1.0,54,0.00,,,0.00,,2013-03-29 06:02:00,
2013-03-29 01:12:00,44.0,28.0,30.06,North,5,0.0,1.0,54,0.00,,,0.00,,2013-03-29 06:12:00,
2013-03-29 01:23:00,43.0,28.0,30.05,NE,48,0.0,3.0,54,0.00,,,0.00,,2013-03-29 06:23:00,
2013-03-29 01:32:00,40.0,26.0,30.06,NE,48,0.0,2.0,58,0.00,,,0.00,,2013-03-29 06:32:00,
2013-03-29 01:42:00,40.0,26.0,30.06,NE,48,0.0,2.0,58,0.00,,,0.00,,2013-03-29 06:42:00,
2013-03-29 01:52:00,38.0,26.0,30.06,NE,48,0.0,1.0,61,0.00,,,0.00,,2013-03-29 06:52:00,
2013-03-29 02:03:00,37.0,26.0,30.06,NE,48,0.0,2.0,63,0.00,,,0.00,,2013-03-29 07:03:00,
2013-03-29 02:12:00,37.0,26.0,30.06,NE,48,0.0,2.0,63,0.00,,,0.00,,2013-03-29 07:12:00,
2013-03-29 02:22:00,37.0,26.0,30.06,NE,48,0.0,2.0,63,0.00,,,0.00,,2013-03-29 07:22:00,
2013-03-29 02:32:00,36.0,25.0,30.06,NE,48,0.0,0.0,64,0.00,,,0.00,,2013-03-29 07:32:00,
2013-03-29 02:42:00,36.0,25.0,30.06,NE,48,0.0,0.0,64,0.00,,,0.00,,2013-03-29 07:42:00,
2013-03-29 02:52:00,36.0,25.0,30.06,NE,48,0.0,2.0,65,0.00,,,0.00,,2013-03-29 07:52:00,
2013-03-29 03:02:00,36.0,26.0,30.05,NE,48,0.0,1.0,66,0.00,,,0.00,,2013-03-29 08:02:00,
2013-03-29 03:12:00,36.0,26.0,30.05,NE,48,0.0,1.0,66,0.00,,,0.00,,2013-03-29 08:12:00,
2013-03-29 03:22:00,35.0,25.0,30.05,NE,48,0.0,0.0,67,0.00,,,0.00,,2013-03-29 08:22:00,
2013-03-29 03:32:00,35.0,26.0,30.05,NE,48,0.0,0.0,68,0.00,,,0.00,,2013-03-29 08:32:00,
2013-03-29 03:42:00,35.0,26.0,30.05,NE,48,0.0,0.0,68,0.00,,,0.00,,2013-03-29 08:42:00,
2013-03-29 03:52:00,35.0,26.0,30.05,NE,48,0.0,0.0,69,0.00,,,0.00,,2013-03-29 08:52:00,
2013-03-29 04:02:00,35.0,26.0,30.05,NE,48,0.0,0.0,69,0.00,,,0.00,,2013-03-29 09:02:00,
2013-03-29 04:13:00,35.0,26.0,30.05,NE,48,0.0,0.0,69,0.00,,,0.00,,2013-03-29 09:13:00,
2013-03-29 04:22:00,34.0,25.0,30.05,NE,48,0.0,0.0,69,0.00,,,0.00,,2013-03-29 09:22:00,
2013-03-29 04:33:00,34.0,25.0,30.04,NE,48,0.0,1.0,70,0.00,,,0.00,,2013-03-29 09:33:00,
2013-03-29 04:42:00,34.0,25.0,30.04,NE,48,0.0,1.0,70,0.00,,,0.00,,2013-03-29 09:42:00,
2013-03-29 04:52:00,35.0,26.0,30.04,NE,48,1.0,3.0,69,0.00,,,0.00,,2013-03-29 09:52:00,
2013-03-29 05:03:00,35.0,26.0,30.04,NE,48,0.0,2.0,68,0.00,,,0.00,,2013-03-29 10:03:00,
2013-03-29 05:12:00,35.0,26.0,30.04,NE,48,0.0,2.0,68,0.00,,,0.00,,2013-03-29 10:12:00,
2013-03-29 05:22:00,35.0,26.0,30.04,NE,42,1.0,3.0,68,0.00,,,0.00,,2013-03-29 10:22:00,
2013-03-29 05:33:00,35.0,26.0,30.04,NE,42,0.0,2.0,68,0.00,,,0.00,,2013-03-29 10:33:00,
2013-03-29 05:42:00,35.0,26.0,30.04,NE,42,0.0,2.0,68,0.00,,,0.00,,2013-03-29 10:42:00,
2013-03-29 05:52:00,35.0,26.0,30.04,NE,42,0.0,2.0,68,0.00,,,0.00,,2013-03-29 10:52:00,
2013-03-29 06:03:00,35.0,26.0,30.04,NE,42,0.0,1.0,70,0.00,,,0.00,,2013-03-29 11:03:00,
2013-03-29 06:12:00,35.0,26.0,30.04,NE,42,0.0,1.0,70,0.00,,,0.00,,2013-03-29 11:12:00,
2013-03-29 06:23:00,35.0,26.0,30.04,NE,42,0.0,1.0,69,0.00,,,0.00,,2013-03-29 11:23:00,
2013-03-29 06:32:00,35.0,26.0,30.04,NE,42,0.0,0.0,69,0.00,,,0.00,,2013-03-29 11:32:00,
2013-03-29 06:42:00,35.0,26.0,30.04,NE,42,0.0,0.0,69,0.00,,,0.00,,2013-03-29 11:42:00,
2013-03-29 06:52:00,35.0,26.0,30.04,NE,42,0.0,0.0,69,0.00,,,0.00,,2013-03-29 11:52:00,
2013-03-29 07:03:00,35.0,26.0,30.04,NE,42,0.0,0.0,70,0.00,,,0.00,,2013-03-29 12:03:00,
2013-03-29 07:12:00,35.0,26.0,30.04,NE,42,0.0,0.0,70,0.00,,,0.00,,2013-03-29 12:12:00,
2013-03-29 07:22:00,35.0,26.0,30.05,NE,42,0.0,0.0,70,0.00,,,0.00,,2013-03-29 12:22:00,
2013-03-29 07:32:00,34.0,25.0,30.05,NE,42,0.0,2.0,70,0.00,,,0.00,,2013-03-29 12:32:00,
2013-03-29 07:42:00,34.0,25.0,30.05,NE,42,0.0,2.0,70,0.00,,,0.00,,2013-03-29 12:42:00,
2013-03-29 07:52:00,34.0,26.0,30.05,NE,42,0.0,0.0,71,0.00,,,0.00,,2013-03-29 12:52:00,
2013-03-29 08:03:00,34.0,26.0,30.06,NE,42,0.0,0.0,72,0.00,,,0.00,,2013-03-29 13:03:00,
2013-03-29 08:12:00,34.0,26.0,30.06,NE,42,0.0,0.0,72,0.00,,,0.00,,2013-03-29 13:12:00,
2013-03-29 08:22:00,33.0,25.0,30.06,NE,42,0.0,0.0,73,0.00,,,0.00,,2013-03-29 13:22:00,
2013-03-29 08:32:00,33.0,26.0,30.06,NE,42,0.0,0.0,74,0.00,,,0.00,,2013-03-29 13:32:00,
2013-03-29 08:42:00,33.0,26.0,30.06,NE,42,0.0,0.0,74,0.00,,,0.00,,2013-03-29 13:42:00,
2013-03-29 08:52:00,34.0,27.0,30.06,NNW,345,0.0,2.0,74,0.00,,,0.00,,2013-03-29 13:52:00,
2013-03-29 09:03:00,37.0,29.0,30.06,ENE,70,1.0,2.0,73,0.00,,,0.00,,2013-03-29 14:03:00,
2013-03-29 09:12:00,37.0,29.0,30.06,ENE,70,1.0,2.0,73,0.00,,,0.00,,2013-03-29 14:12:00,
2013-03-29 09:22:00,40.0,30.0,30.06,ENE,64,1.0,3.0,67,0.00,,,0.00,,2013-03-29 14:22:00,
2013-03-29 09:32:00,43.0,32.0,30.05,ENE,64,0.0,3.0,64,0.00,,,0.00,,2013-03-29 14:32:00,
2013-03-29 09:42:00,43.0,32.0,30.05,ENE,64,0.0,3.0,64,0.00,,,0.00,,2013-03-29 14:42:00,
2013-03-29 09:52:00,45.0,32.0,30.05,NE,44,1.0,4.0,60,0.00,,,0.00,,2013-03-29 14:52:00,
2013-03-29 10:02:00,47.0,33.0,30.05,NE,52,1.0,5.0,57,0.00,,,0.00,,2013-03-29 15:02:00,
2013-03-29 10:12:00,47.0,33.0,30.05,NE,52,1.0,5.0,57,0.00,,,0.00,,2013-03-29 15:12:00,
2013-03-29 10:22:00,49.0,34.0,30.04,NNE,30,2.0,6.0,56,0.00,,,0.00,,2013-03-29 15:22:00,
2013-03-29 10:33:00,51.0,34.0,30.03,NE,41,2.0,8.0,53,0.00,,,0.00,,2013-03-29 15:33:00,
2013-03-29 10:43:00,51.0,34.0,30.03,NE,41,2.0,8.0,53,0.00,,,0.00,,2013-03-29 15:43:00,
2013-03-29 10:52:00,53.0,36.0,30.03,NE,47,2.0,6.0,52,0.00,,,0.00,,2013-03-29 15:52:00,
2013-03-29 11:03:00,55.0,38.0,30.02,NE,55,2.0,6.0,52,0.00,,,0.00,,2013-03-29 16:03:00,
2013-03-29 11:13:00,55.0,38.0,30.02,NE,55,2.0,6.0,52,0.00,,,0.00,,2013-03-29 16:13:00,
2013-03-29 11:23:00,57.0,40.0,30.02,ENE,65,0.0,4.0,53,0.00,,,0.00,,2013-03-29 16:23:00,
2013-03-29 11:32:00,59.0,43.0,30.02,SSW,211,2.0,7.0,55,0.00,,,0.00,,2013-03-29 16:32:00,
2013-03-29 11:42:00,59.0,43.0,30.02,SSW,211,2.0,7.0,55,0.00,,,0.00,,2013-03-29 16:42:00,
2013-03-29 11:52:00,60.0,43.0,30.01,SSE,152,1.0,8.0,53,0.00,,,0.00,,2013-03-29 16:52:00,
2013-03-29 12:03:00,60.0,43.0,30.01,South,174,1.0,7.0,53,0.00,,,0.00,,2013-03-29 17:03:00,
2013-03-29 12:12:00,60.0,43.0,30.01,South,174,1.0,7.0,53,0.00,,,0.00,,2013-03-29 17:12:00,
2013-03-29 12:22:00,61.0,43.0,30.01,SSW,193,5.0,9.0,51,0.00,,,0.00,,2013-03-29 17:22:00,
2013-03-29 12:33:00,60.0,43.0,30.00,SSE,148,4.0,9.0,53,0.00,,,0.00,,2013-03-29 17:33:00,
2013-03-29 12:42:00,60.0,43.0,30.00,SSE,148,4.0,9.0,53,0.00,,,0.00,,2013-03-29 17:42:00,
2013-03-29 12:52:00,61.0,43.0,30.00,ESE,110,2.0,5.0,51,0.00,,,0.00,,2013-03-29 17:52:00,
2013-03-29 13:02:00,64.0,44.0,30.00,South,188,5.0,11.0,48,0.00,,,0.00,,2013-03-29 18:02:00,
2013-03-29 13:12:00,64.0,44.0,30.00,South,188,5.0,11.0,48,0.00,,,0.00,,2013-03-29 18:12:00,
2013-03-29 13:22:00,65.0,43.0,29.99,SE,138,4.0,9.0,45,0.00,,,0.00,,2013-03-29 18:22:00,
2013-03-29 13:32:00,65.0,43.0,29.97,SE,137,1.0,5.0,45,0.00,,,0.00,,2013-03-29 18:32:00,
2013-03-29 13:42:00,65.0,43.0,29.97,SE,137,1.0,5.0,45,0.00,,,0.00,,2013-03-29 18:42:00,
2013-03-29 13:52:00,67.0,43.0,29.96,SSE,163,1.0,8.0,41,0.00,,,0.00,,2013-03-29 18:52:00,
2013-03-29 14:02:00,66.0,42.0,29.96,SE,138,3.0,6.0,42,0.00,,,0.00,,2013-03-29 19:02:00,
2013-03-29 14:12:00,66.0,41.0,29.95,SE,140,1.0,5.0,40,0.00,,,0.00,,2013-03-29 19:12:00,
2013-03-29 14:23:00,66.0,41.0,29.95,SE,140,1.0,5.0,40,0.00,,,0.00,,2013-03-29 19:23:00,
2013-03-29 14:32:00,68.0,41.0,29.95,SSE,151,2.0,6.0,38,0.00,,,0.00,,2013-03-29 19:32:00,
2013-03-29 14:42:00,68.0,41.0,29.95,SSE,151,2.0,6.0,38,0.00,,,0.00,,2013-03-29 19:42:00,
2013-03-29 14:52:00,67.0,41.0,29.94,SSE,159,2.0,6.0,38,0.00,,,0.00,,2013-03-29 19:52:00,
2013-03-29 15:02:00,68.0,41.0,29.93,SE,140,2.0,10.0,37,0.00,,,0.00,,2013-03-29 20:02:00,
2013-03-29 15:12:00,68.0,41.0,29.93,SE,140,2.0,10.0,37,0.00,,,0.00,,2013-03-29 20:12:00,
2013-03-29 15:22:00,67.0,41.0,29.93,SSW,207,2.0,7.0,39,0.00,,,0.00,,2013-03-29 20:22:00,
2013-03-29 15:33:00,66.0,40.0,29.92,SE,127,1.0,5.0,39,0.00,,,0.00,,2013-03-29 20:33:00,
2013-03-29 15:42:00,66.0,40.0,29.92,SE,127,1.0,5.0,39,0.00,,,0.00,,2013-03-29 20:42:00,
2013-03-29 15:52:00,69.0,40.0,29.91,NE,41,1.0,10.0,35,0.00,,,0.00,,2013-03-29 20:52:00,
2013-03-29 16:02:00,68.0,41.0,29.90,SE,126,2.0,8.0,38,0.00,,,0.00,,2013-03-29 21:02:00,
2013-03-29 16:12:00,68.0,41.0,29.90,SE,126,2.0,8.0,38,0.00,,,0.00,,2013-03-29 21:12:00,
2013-03-29 16:22:00,69.0,43.0,29.89,South,169,3.0,12.0,39,0.00,,,0.00,,2013-03-29 21:22:00,
2013-03-29 16:33:00,68.0,43.0,29.89,NE,34,2.0,9.0,40,0.00,,,0.00,,2013-03-29 21:33:00,
2013-03-29 16:42:00,68.0,43.0,29.89,NE,34,2.0,9.0,40,0.00,,,0.00,,2013-03-29 21:42:00,
2013-03-29 16:53:00,69.0,42.0,29.88,SE,144,4.0,12.0,37,0.00,,,0.00,,2013-03-29 21:53:00,
2013-03-29 17:03:00,71.0,40.0,29.87,East,90,3.0,10.0,33,0.00,,,0.00,,2013-03-29 22:03:00,
2013-03-29 17:12:00,71.0,40.0,29.87,East,90,3.0,10.0,33,0.00,,,0.00,,2013-03-29 22:12:00,
2013-03-29 17:22:00,70.0,40.0,29.87,SE,146,2.0,7.0,33,0.00,,,0.00,,2013-03-29 22:22:00,
2013-03-29 17:33:00,68.0,41.0,29.86,North,5,2.0,6.0,37,0.00,,,0.00,,2013-03-29 22:33:00,
2013-03-29 17:42:00,68.0,41.0,29.86,North,5,2.0,6.0,37,0.00,,,0.00,,2013-03-29 22:42:00,
2013-03-29 17:52:00,67.0,39.0,29.85,NNE,15,2.0,6.0,36,0.00,,,0.00,,2013-03-29 22:52:00,
2013-03-29 18:03:00,67.0,39.0,29.85,NNE,18,2.0,8.0,36,0.00,,,0.00,,2013-03-29 23:03:00,
2013-03-29 18:12:00,67.0,39.0,29.85,NNE,18,2.0,8.0,36,0.00,,,0.00,,2013-03-29 23:12:00,
2013-03-29 18:22:00,66.0,40.0,29.85,SE,142,5.0,13.0,38,0.00,,,0.00,,2013-03-29 23:22:00,
2013-03-29 18:32:00,66.0,40.0,29.83,ENE,71,1.0,6.0,38,0.00,,,0.00,,2013-03-29 23:32:00,
2013-03-29 18:42:00,66.0,40.0,29.83,ENE,71,1.0,6.0,38,0.00,,,0.00,,2013-03-29 23:42:00,
2013-03-29 18:52:00,65.0,39.0,29.83,NNE,28,1.0,6.0,39,0.00,,,0.00,,2013-03-29 23:52:00,
2013-03-29 19:03:00,65.0,39.0,29.83,ENE,57,2.0,8.0,39,0.00,,,0.00,,2013-03-30 00:03:00,
2013-03-29 19:12:00,65.0,39.0,29.83,ENE,57,2.0,8.0,39,0.00,,,0.00,,2013-03-30 00:12:00,
2013-03-29 19:22:00,64.0,41.0,29.83,NE,38,3.0,7.0,43,0.00,,,0.00,,2013-03-30 00:22:00,
2013-03-29 19:32:00,61.0,47.0,29.86,East,80,0.0,5.0,59,0.03,,,0.03,,2013-03-30 00:32:00,
2013-03-29 19:42:00,61.0,47.0,29.86,East,80,0.0,5.0,59,0.03,,,0.03,,2013-03-30 00:42:00,
2013-03-29 19:52:00,58.0,48.0,29.89,NE,55,0.0,6.0,69,0.22,,,0.22,,2013-03-30 00:52:00,
2013-03-29 20:03:00,54.0,48.0,29.88,NE,49,1.0,5.0,80,0.66,,,0.66,,2013-03-30 01:03:00,
2013-03-29 20:12:00,54.0,48.0,29.88,NE,49,1.0,5.0,80,0.66,,,0.66,,2013-03-30 01:12:00,
2013-03-29 20:22:00,53.0,49.0,29.89,North,5,0.0,2.0,85,0.74,,,0.74,,2013-03-30 01:22:00,
2013-03-29 20:32:00,53.0,49.0,29.89,North,5,0.0,2.0,85,0.74,,,0.74,,2013-03-30 01:32:00,
2013-03-29 20:42:00,53.0,49.0,29.89,North,5,0.0,2.0,85,0.74,,,0.74,,2013-03-30 01:42:00,
2013-03-29 20:52:00,52.0,48.0,29.86,NE,46,0.0,2.0,85,0.52,,,0.74,,2013-03-30 01:52:00,
2013-03-29 21:03:00,51.0,47.0,29.85,NE,35,0.0,1.0,86,0.07,,,0.74,,2013-03-30 02:03:00,
2013-03-29 21:12:00,51.0,47.0,29.85,NE,35,0.0,1.0,86,0.07,,,0.74,,2013-03-30 02:12:00,
2013-03-29 21:22:00,50.0,46.0,29.85,NE,48,0.0,2.0,86,0.00,,,0.74,,2013-03-30 02:22:00,
2013-03-29 21:32:00,50.0,46.0,29.85,NE,46,0.0,3.0,86,0.00,,,0.74,,2013-03-30 02:32:00,
2013-03-29 21:42:00,50.0,46.0,29.85,NE,46,0.0,3.0,86,0.00,,,0.74,,2013-03-30 02:42:00,
2013-03-29 21:52:00,50.0,46.0,29.85,NE,43,0.0,2.0,87,0.00,,,0.74,,2013-03-30 02:52:00,
2013-03-29 22:02:00,49.0,45.0,29.86,NE,43,0.0,1.0,87,0.00,,,0.74,,2013-03-30 03:02:00,
2013-03-29 22:12:00,49.0,46.0,29.85,NE,43,0.0,2.0,88,0.00,,,0.74,,2013-03-30 03:12:00,
2013-03-29 22:22:00,49.0,46.0,29.85,NE,43,0.0,2.0,88,0.00,,,0.74,,2013-03-30 03:22:00,
2013-03-29 22:33:00,49.0,46.0,29.85,NE,42,0.0,2.0,88,0.00,,,0.74,,2013-03-30 03:33:00,
2013-03-29 22:43:00,49.0,46.0,29.85,NE,42,0.0,2.0,88,0.00,,,0.74,,2013-03-30 03:43:00,
2013-03-29 22:53:00,48.0,44.0,29.85,NE,40,0.0,3.0,87,0.00,,,0.74,,2013-03-30 03:53:00,
2013-03-29 23:02:00,48.0,44.0,29.86,NE,40,0.0,1.0,87,0.00,,,0.74,,2013-03-30 04:02:00,
2013-03-29 23:12:00,48.0,44.0,29.86,NE,40,0.0,1.0,87,0.00,,,0.74,,2013-03-30 04:12:00,
2013-03-29 23:23:00,47.0,44.0,29.86,NE,40,0.0,1.0,88,0.00,,,0.74,,2013-03-30 04:23:00,
2013-03-29 23:32:00,47.0,44.0,29.87,NE,40,0.0,2.0,88,0.00,,,0.74,,2013-03-30 04:32:00,
2013-03-29 23:42:00,47.0,44.0,29.87,NE,40,0.0,2.0,88,0.00,,,0.74,,2013-03-30 04:42:00,
2013-03-29 23:52:00,46.0,43.0,29.86,NE,46,0.0,2.0,88,0.01,,,0.75,,2013-03-30 04:52:00,